Date,TemperatureHighF,TemperatureAvgF,TemperatureLowF,DewpointHighF,DewpointAvgF,DewpointLowF,HumidityHigh,HumidityAvg,HumidityLow,PressureMaxIn,PressureMinIn,WindSpeedMaxMPH,WindSpeedAvgMPH,GustSpeedMaxMPH,PrecipitationSumIn
2013-1-1,12.5,2.3,-13.3,6.6,-3.1,-17.2,86,78,57,30.31,30.14,12,3,14,0.00
2013-1-2,19.7,14.7,9.9,13.3,10.8,6.6,92,84,74,30.14,30.02,8,2,13,0.00
2013-1-3,19.5,14.9,9.1,15.7,11.4,5.6,91,86,78,30.20,30.05,12,4,19,0.00
2013-1-4,31.7,17.6,8.8,20.5,12.7,6.1,91,81,62,30.20,30.01,12,4,20,0.00
2013-1-5,27.6,14.4,1.7,18.6,9.9,-1.4,93,83,68,30.20,29.90,13,1,16,0.00
2013-1-6,28.1,21.2,12.9,19.7,16.5,9.0,92,82,61,30.22,29.95,11,2,16,0.00
2013-1-7,32.8,24.3,12.8,24.1,18.2,5.8,89,77,69,30.16,29.88,16,6,25,0.00
2013-1-8,39.5,26.3,10.3,28.5,21.5,7.7,95,83,54,30.08,29.79,13,3,21,0.00
2013-1-9,34.0,28.9,18.7,27.8,22.1,14.1,88,76,60,30.41,29.83,21,6,28,0.00
2013-1-10,40.1,30.9,19.5,31.7,18.8,12.0,94,64,32,30.45,29.83,14,4,19,0.25
2013-1-11,40.6,35.8,33.2,40.1,34.9,31.7,98,97,94,29.83,29.44,10,3,18,0.03
2013-1-12,43.2,23.9,10.6,41.9,19.2,4.7,98,82,74,30.02,29.40,22,8,30,0.03
2013-1-13,11.7,8.8,2.9,6.8,3.6,-0.6,85,79,66,30.24,29.98,9,3,13,0.00
2013-1-14,9.6,3.7,-1.6,4.5,-0.2,-4.8,87,84,75,30.46,30.25,12,3,14,0.00
2013-1-15,24.9,15.5,3.2,15.7,8.7,0.0,88,75,51,30.44,29.91,13,4,16,0.00
2013-1-16,27.4,20.7,9.5,23.7,14.8,-0.9,94,78,60,30.17,29.64,18,6,20,0.00
2013-1-17,9.4,3.9,-4.1,0.7,-2.8,-7.5,86,73,63,30.44,30.17,11,2,14,0.00
2013-1-18,30.9,17.3,-3.7,25.5,13.7,-6.8,94,86,79,30.42,29.80,11,2,14,0.00
2013-1-19,33.9,21.9,1.1,29.5,17.7,-4.6,93,84,62,30.03,29.58,25,5,30,0.04
2013-1-20,4.1,-1.9,-7.2,-4.2,-8.2,-11.2,84,74,55,30.33,30.03,14,4,16,1.00
2013-1-21,-5.3,-12.2,-15.7,-8.9,-18.4,-22.3,84,73,58,30.36,30.24,18,4,18,0.96
2013-1-22,-1.2,-11.7,-20.7,-12.4,-18.2,-24.9,80,73,55,30.47,30.36,10,3,11,1.04
2013-1-23,8.7,-3.4,-12.8,2.2,-8.5,-17.6,83,78,65,30.62,30.17,20,4,27,0.96
2013-1-24,6.6,-2.3,-15.8,1.4,-8.9,-19.9,84,74,53,30.77,30.37,8,2,11,0.96
2013-1-25,15.1,10.3,4.5,10.7,6.5,1.4,88,85,77,30.37,29.98,11,4,15,1.00
2013-1-26,19.3,8.7,-8.6,10.8,3.0,-12.3,88,78,67,30.45,30.28,9,2,11,0.04
2013-1-27,28.8,23.5,17.6,25.0,18.0,10.4,95,80,60,30.31,29.88,10,3,13,1.92
2013-1-28,34.5,28.6,25.8,30.2,26.5,24.6,96,92,83,29.94,29.75,8,1,11,0.20
2013-1-29,33.8,31.4,26.5,33.0,29.7,22.9,97,94,86,29.77,29.51,18,5,25,0.04
2013-1-30,26.4,17.8,8.2,23.1,14.7,4.6,92,87,84,29.66,29.49,16,9,22,8.00
2013-1-31,8.1,4.0,-2.2,4.8,-0.3,-6.8,87,82,74,30.17,29.62,14,5,18,7.68
2013-2-1,-1.6,-6.7,-15.6,-7.0,-13.1,-19.9,82,73,59,30.32,30.18,12,4,18,7.68
2013-2-2,11.7,1.5,-8.7,0.2,-5.1,-13.2,84,74,56,30.25,30.05,7,1,9,8.00
2013-2-3,10.8,3.2,-5.8,0.1,-2.5,-9.5,86,77,57,30.09,29.98,13,3,16,8.32
2013-2-4,13.5,0.8,-18.4,-1.4,-7.9,-22.4,85,68,41,30.14,29.94,10,1,10,7.68
2013-2-5,17.6,9.7,-9.5,14.1,6.1,-13.5,92,85,67,30.15,29.74,15,3,18,7.68
2013-2-6,21.2,7.5,-12.5,18.1,4.2,-16.4,94,86,71,30.25,30.13,8,1,13,7.68
2013-2-7,21.2,19.7,16.2,19.5,17.9,12.5,94,92,84,30.31,30.13,15,7,20,8.32
2013-2-8,23.1,10.8,-5.4,14.1,6.0,-8.5,92,81,59,30.46,30.31,8,1,12,0.02
2013-2-9,21.5,15.1,-3.0,20.3,12.6,-6.1,95,90,82,30.40,30.09,12,3,14,8.16
2013-2-10,31.6,26.7,21.2,30.9,25.6,19.8,97,96,93,30.09,29.29,21,6,28,8.16
2013-2-11,31.7,25.8,19.2,31.2,24.0,16.5,98,93,86,29.97,29.27,8,2,12,8.16
2013-2-12,26.1,19.2,14.2,21.9,16.3,11.7,95,88,82,30.02,29.82,9,2,10,8.50
2013-2-13,34.3,25.4,18.5,29.4,22.8,16.9,95,90,80,29.81,29.65,7,1,10,0.18
2013-2-14,27.5,21.9,10.3,25.6,18.5,5.6,96,86,77,30.10,29.64,15,6,19,13.52
2013-2-15,15.4,8.2,-0.8,6.7,2.6,-4.5,89,78,61,30.28,30.10,14,3,16,12.48
2013-2-16,13.0,-3.1,-21.0,1.3,-9.6,-25.2,87,74,51,30.28,30.23,7,1,8,12.48
2013-2-17,22.1,3.8,-22.3,12.4,-4.9,-26.7,83,68,49,30.28,29.92,11,3,19,13.52
2013-2-18,31.2,25.1,19.0,27.4,21.0,12.4,94,84,75,29.92,29.54,11,3,15,12.48
2013-2-19,20.7,6.1,0.5,17.7,1.3,-3.8,90,80,72,30.28,29.59,16,7,21,13.48
2013-2-20,17.8,8.7,1.8,7.8,3.3,-1.5,87,79,62,30.53,30.28,15,6,19,12.48
2013-2-21,24.5,10.8,-13.5,16.4,5.4,-17.6,90,79,61,30.58,30.22,14,4,18,0.01
2013-2-22,24.1,19.9,11.3,21.9,17.6,9.2,94,91,88,30.23,29.85,18,5,19,12.72
2013-2-23,28.3,21.9,9.5,25.4,19.7,7.1,94,91,86,29.94,29.82,8,1,9,0.01
2013-2-24,29.5,26.5,22.4,24.0,22.7,20.9,95,85,74,30.14,29.94,5,1,7,0.03
2013-2-25,30.5,23.6,8.1,26.2,20.5,5.8,95,88,82,30.17,30.11,6,0,7,0.01
2013-2-26,34.5,28.8,24.1,25.6,23.6,21.1,91,81,66,30.14,29.89,19,7,22,13.92
2013-2-27,31.0,28.3,26.9,26.0,24.0,22.1,87,83,77,29.97,29.83,26,13,29,13.92
2013-2-28,27.9,22.8,15.5,24.3,18.2,10.8,89,82,75,30.27,29.97,26,12,30,13.92
2013-3-1,24.3,17.4,9.6,12.6,10.4,5.7,87,75,47,30.40,30.27,13,7,20,13.92
2013-3-2,25.9,10.8,-10.2,10.6,1.9,-14.2,90,69,43,30.39,30.25,11,3,13,13.92
2013-3-3,28.5,9.8,-14.1,9.4,-3.7,-18.2,86,59,22,30.27,30.14,5,0,7,0.02
2013-3-4,31.1,18.8,2.2,15.6,7.5,-4.1,80,63,36,30.19,30.11,11,3,14,14.40
2013-3-5,27.5,23.3,20.4,19.3,15.3,10.8,90,72,52,30.27,30.08,15,6,18,14.40
2013-3-6,31.1,22.2,9.5,18.4,15.4,5.4,91,76,53,30.38,30.26,11,4,14,14.40
2013-3-7,33.1,17.3,-3.5,17.8,9.0,-7.1,91,71,49,30.48,30.37,5,0,7,14.40
2013-3-8,39.2,28.4,17.1,25.4,20.0,11.3,85,71,56,30.47,30.24,12,3,14,15.00
2013-3-9,34.9,31.3,27.8,32.1,28.0,22.1,96,88,76,30.24,29.79,14,3,19,0.42
2013-3-10,33.1,30.9,25.6,32.1,28.7,24.4,97,91,85,29.96,29.78,23,9,26,23.46
2013-3-11,27.3,24.4,20.4,24.8,21.8,17.4,95,90,80,29.84,29.68,19,8,23,0.01
2013-3-12,24.2,20.1,16.7,18.6,16.2,13.0,91,84,74,30.10,29.78,13,5,18,23.69
2013-3-13,32.5,20.0,9.5,13.2,7.2,2.3,86,61,33,30.33,30.11,11,3,18,0.01
2013-3-14,33.0,18.1,-3.8,26.4,11.7,-7.4,90,77,46,30.31,30.07,11,2,13,24.96
2013-3-15,28.2,25.3,15.3,25.5,20.3,12.9,93,82,65,30.07,29.92,13,6,19,24.96
2013-3-16,23.6,16.0,9.6,13.3,9.4,3.9,90,76,61,30.23,29.95,13,4,16,0.02
2013-3-17,25.2,11.2,-13.8,10.6,-0.4,-17.9,82,61,35,30.34,30.09,13,3,15,25.44
2013-3-18,27.8,20.5,14.2,25.3,17.4,10.6,92,88,76,30.08,29.56,14,5,20,0.03
2013-3-19,25.0,16.2,9.2,12.1,7.1,0.8,90,69,44,30.05,29.61,21,8,27,26.16
2013-3-20,15.7,10.1,1.3,5.4,1.3,-4.4,79,67,59,30.14,30.04,12,4,16,26.16
2013-3-21,28.8,15.7,2.9,14.0,7.7,-1.9,86,71,50,30.13,30.06,9,2,11,26.16
2013-3-22,30.5,15.8,-8.5,20.1,9.3,-12.5,88,76,63,30.15,30.09,12,2,12,0.01
2013-3-23,32.3,24.6,14.6,22.2,18.7,11.7,92,79,62,30.21,30.13,10,3,11,27.24
2013-3-24,29.7,25.0,19.2,22.7,19.5,14.9,86,79,70,30.15,29.97,22,8,22,26.40
2013-3-25,32.3,23.8,12.1,22.7,18.2,9.5,94,80,61,30.23,30.02,20,6,22,26.40
2013-3-26,35.5,29.0,22.1,24.1,20.7,18.4,89,72,51,30.30,30.23,10,2,11,26.40
2013-3-27,40.8,30.7,21.1,21.8,18.8,15.5,84,63,37,30.34,30.28,10,2,13,26.40
2013-3-28,42.1,27.7,9.3,20.9,15.4,6.7,92,64,36,30.39,30.29,9,1,12,26.40
2013-3-29,47.7,31.9,10.8,23.8,18.1,8.2,91,61,31,30.36,30.17,9,1,12,26.40
2013-3-30,38.2,36.1,30.5,36.9,31.8,21.2,97,86,53,30.17,29.80,11,4,13,0.52
2013-3-31,35.1,30.1,22.1,31.1,23.3,9.8,97,77,47,29.99,29.69,18,6,26,0.02
2013-4-1,29.9,23.6,18.3,14.9,8.8,5.0,86,54,36,30.20,29.99,19,5,22,39.36
2013-4-2,34.4,24.4,13.4,13.8,8.8,2.7,76,53,26,30.37,30.20,12,3,16,39.36
2013-4-3,41.0,25.5,4.3,19.5,9.0,1.0,88,55,24,30.49,30.15,12,3,20,39.36
2013-4-4,47.4,38.5,29.7,31.1,22.3,16.6,65,53,34,30.15,29.98,18,6,22,39.36
2013-4-5,39.5,30.7,19.8,27.4,17.5,10.6,92,60,30,30.28,30.12,8,2,14,39.36
2013-4-6,42.1,33.9,29.1,34.3,29.8,26.1,95,85,65,30.12,29.57,19,4,19,0.48
2013-4-7,43.7,34.7,30.6,30.9,29.2,27.8,93,81,60,29.96,29.63,10,3,14,0.01
2013-4-8,38.3,35.3,32.8,36.5,33.4,29.9,96,93,81,30.05,29.78,12,2,15,0.75
2013-4-9,36.4,33.7,30.0,33.7,29.0,16.4,97,84,56,30.18,30.04,22,8,22,69.12
2013-4-10,38.7,33.2,27.8,24.8,20.5,16.0,74,60,49,30.23,30.03,20,9,23,69.12
2013-4-11,33.2,29.7,25.4,26.2,22.4,16.3,94,75,52,30.03,29.75,23,11,31,69.12
2013-4-12,31.4,26.9,24.7,28.2,24.9,23.2,94,92,84,29.80,29.69,11,6,16,0.09
2013-4-13,32.5,27.1,22.0,24.4,21.8,19.3,92,81,61,30.02,29.79,12,3,13,0.03
2013-4-14,33.7,25.7,13.4,30.6,22.8,11.3,96,89,64,30.05,29.69,21,4,22,72.00
2013-4-15,39.5,34.5,31.7,33.3,29.1,26.0,97,81,65,29.92,29.62,22,6,27,0.92
2013-4-16,43.5,36.2,29.4,29.7,26.9,23.1,86,70,50,30.38,29.92,13,4,18,94.08
2013-4-17,39.3,33.5,27.0,31.4,26.8,22.6,95,77,63,30.41,30.00,12,4,16,0.02
2013-4-18,33.3,32.0,29.9,31.8,30.7,28.9,96,95,93,30.00,29.29,21,8,22,0.34
2013-4-19,29.9,25.5,20.8,29.0,22.7,17.1,97,89,78,29.95,29.23,24,10,29,102.72
2013-4-20,34.5,24.7,12.2,17.5,13.6,8.9,89,65,39,30.41,29.95,13,3,15,0.04
2013-4-21,36.4,31.4,21.8,33.6,25.3,14.3,92,79,56,30.44,30.15,16,5,27,0.19
2013-4-22,40.1,35.6,29.3,39.3,34.0,28.3,97,94,88,30.24,30.06,14,6,18,0.32
2013-4-23,33.7,29.9,22.8,30.0,28.0,21.2,97,93,82,30.07,29.97,14,6,18,0.25
2013-4-24,45.2,32.2,16.2,31.1,23.2,14.5,95,73,41,30.05,29.91,19,4,23,0.02
2013-4-25,45.1,36.1,26.9,33.8,27.0,22.2,95,72,42,30.22,29.94,13,3,18,0.04
2013-4-26,65.1,48.2,31.4,41.1,34.4,25.0,89,61,39,30.21,30.04,15,5,20,0.06
2013-4-27,69.3,52.2,29.5,48.2,39.1,27.9,95,66,33,30.15,29.94,11,2,16,0.00
2013-4-28,70.2,58.5,46.3,51.2,43.7,40.5,92,61,35,29.94,29.69,13,4,19,0.05
2013-4-29,71.1,57.4,43.6,53.6,49.2,42.6,98,77,39,29.77,29.63,10,2,14,0.40
2013-4-30,78.5,64.9,50.7,58.0,48.4,32.8,92,59,28,29.86,29.47,16,6,23,0.00
2013-5-1,57.9,41.9,31.8,43.3,35.3,30.0,94,80,38,30.44,29.86,15,5,15,0.23
2013-5-2,32.0,29.0,27.0,30.6,27.7,25.5,97,95,93,30.51,30.41,15,9,21,0.05
2013-5-3,31.3,29.3,27.1,30.5,28.1,25.6,97,95,94,30.42,30.20,16,8,22,0.00
2013-5-4,53.5,38.0,30.9,44.7,35.3,30.1,98,91,71,30.21,30.13,12,4,12,0.32
2013-5-5,66.1,46.8,32.1,46.7,38.1,31.1,96,75,45,30.20,30.06,11,4,14,0.00
2013-5-6,73.9,55.6,34.4,47.7,40.2,33.1,96,62,28,30.11,29.99,12,2,14,0.00
2013-5-7,75.1,59.4,40.1,51.8,41.8,36.2,94,59,25,30.07,29.95,7,1,13,0.00
2013-5-8,77.1,61.3,42.7,49.0,43.9,34.0,93,58,22,30.01,29.93,13,2,13,0.00
2013-5-9,57.8,48.4,35.1,47.9,41.9,31.2,95,79,62,30.11,29.93,18,8,21,0.31
2013-5-10,62.5,46.1,31.1,37.5,27.8,18.8,84,54,19,30.11,29.89,15,5,19,0.00
2013-5-11,50.6,39.8,33.0,38.1,28.8,22.7,88,65,48,30.08,29.82,23,9,28,0.00
2013-5-12,47.9,38.4,30.4,25.5,20.2,13.8,71,50,27,30.16,30.08,19,7,23,0.01
2013-5-13,58.6,45.4,26.3,33.3,24.6,18.1,88,48,24,30.18,29.78,12,3,18,0.00
2013-5-14,81.7,64.5,43.6,49.7,41.6,32.9,80,46,25,29.77,29.40,18,4,20,0.00
2013-5-15,76.2,65.1,53.7,48.2,40.2,33.0,70,43,21,29.81,29.51,19,5,21,0.00
2013-5-16,72.2,61.5,45.9,47.4,39.6,31.6,85,48,24,30.00,29.79,11,4,19,0.00
2013-5-17,68.1,58.7,51.2,50.8,43.5,33.4,82,58,39,30.07,29.98,14,5,19,0.00
2013-5-18,73.5,60.2,49.9,61.3,54.1,47.1,94,81,62,30.05,29.86,10,3,18,0.28
2013-5-19,81.9,69.6,59.8,63.0,60.4,57.1,95,74,48,29.88,29.64,20,4,42,1.20
2013-5-20,76.5,66.3,56.3,61.7,58.1,53.7,96,77,49,29.67,29.50,15,4,19,0.60
2013-5-21,68.3,58.1,46.9,58.4,54.0,45.3,96,87,65,29.70,29.50,10,2,12,0.88
2013-5-22,54.1,49.0,45.7,50.7,47.1,41.9,98,93,85,29.98,29.67,18,8,24,0.00
2013-5-23,51.9,44.6,37.1,41.9,33.5,26.5,91,67,38,30.37,29.98,22,10,26,0.00
2013-5-24,65.8,49.5,31.3,42.5,33.9,28.8,93,60,29,30.47,30.28,7,1,13,0.00
2013-5-25,65.0,55.0,43.3,45.6,40.6,36.6,86,61,36,30.36,30.26,10,2,14,0.00
2013-5-26,65.6,55.3,40.0,41.9,36.3,30.0,90,53,27,30.32,30.15,13,3,18,0.00
2013-5-27,66.3,56.4,47.2,46.0,41.8,36.9,76,59,43,30.17,29.90,16,5,21,0.00
2013-5-28,58.2,54.0,50.9,53.4,48.6,43.2,94,82,68,29.91,29.70,11,3,13,0.00
2013-5-29,54.6,54.0,53.7,53.8,52.9,52.4,97,96,95,29.81,29.76,5,0,9,0.00
2013-6-4,59.1,54.8,50.5,50.0,48.2,43.9,96,79,60,30.17,30.11,7,1,10,0.07
2013-6-5,52.5,50.0,47.4,50.5,48.6,46.0,97,95,92,30.16,29.99,13,4,15,0.73
2013-6-6,52.1,49.7,47.4,49.5,47.6,46.0,97,92,86,30.03,29.98,9,3,13,0.12
2013-6-7,64.1,55.2,46.1,52.5,47.6,45.0,96,77,53,30.05,29.93,11,1,12,0.00
2013-6-8,67.8,57.6,47.5,53.1,49.9,46.1,96,77,51,29.99,29.93,11,2,15,0.00
2013-6-9,66.6,57.4,49.9,57.7,52.2,47.0,92,83,69,30.01,29.84,15,4,18,0.08
2013-6-10,77.1,66.9,56.1,61.9,58.1,54.4,95,75,53,29.85,29.76,11,2,13,0.00
2013-6-11,79.1,66.7,54.5,62.6,58.0,52.8,96,75,53,29.86,29.77,14,2,15,0.00
2013-6-12,76.8,65.2,55.2,60.8,55.0,49.9,92,71,43,29.89,29.72,10,2,15,0.00
2013-6-13,70.6,61.5,52.4,53.8,50.5,47.5,90,69,44,30.11,29.82,22,6,22,0.00
2013-6-14,76.8,63.7,47.5,56.9,49.2,44.5,96,63,33,30.14,29.93,9,2,12,0.00
2013-6-15,67.8,62.5,58.8,64.2,59.2,53.2,98,89,66,29.95,29.77,9,1,14,1.18
2013-6-16,79.0,64.6,54.0,59.5,54.2,47.1,98,74,34,29.87,29.79,22,3,26,0.06
2013-6-17,70.2,61.1,51.0,59.5,54.4,49.3,95,80,60,30.04,29.82,14,4,19,0.04
2013-6-18,71.3,58.6,43.3,50.9,43.0,38.6,90,60,32,30.13,30.03,12,3,14,0.00
2013-6-19,76.3,64.9,52.9,57.0,49.4,39.0,76,58,43,30.11,29.98,10,3,13,0.00
2013-6-20,79.4,67.5,61.4,63.7,59.5,54.1,96,76,56,30.08,29.96,14,3,16,0.63
2013-6-21,72.1,64.9,59.4,65.8,62.1,58.0,96,91,77,30.08,29.69,20,3,24,0.91
2013-6-22,70.8,64.8,58.5,66.7,62.1,57.7,97,91,81,30.04,29.84,11,3,16,0.04
2013-6-23,81.6,73.0,63.6,69.3,64.3,60.9,94,75,54,29.88,29.73,19,4,27,0.00
2013-6-24,82.0,72.6,63.2,69.2,64.5,61.2,95,77,54,29.88,29.76,11,2,16,0.00
2013-6-25,83.1,72.6,62.7,68.2,64.7,60.7,97,78,55,29.82,29.71,9,1,10,0.00
2013-6-26,84.2,72.1,65.0,72.6,67.8,63.2,98,87,62,29.72,29.63,10,2,14,0.07
2013-6-27,82.4,70.0,62.5,68.0,63.0,56.3,97,80,43,29.75,29.63,19,2,28,0.03
2013-6-28,70.6,63.9,58.5,64.6,59.4,55.7,94,85,71,29.72,29.62,14,5,20,0.11
2013-6-29,69.2,61.6,53.9,58.4,53.8,45.5,93,77,50,29.95,29.70,15,8,21,0.03
2013-6-30,76.8,63.8,49.0,56.0,48.7,44.5,89,62,35,30.09,29.95,14,4,16,0.00
2013-7-1,78.7,65.7,52.3,57.4,51.4,47.2,94,64,34,30.16,30.08,14,4,21,0.00
2013-7-2,77.4,64.5,50.4,53.3,49.8,45.7,93,62,35,30.14,30.03,7,1,11,0.00
2013-7-3,79.3,66.6,50.6,58.6,51.9,46.3,89,62,35,30.07,29.95,7,1,9,0.00
2013-7-4,81.9,70.8,59.4,61.2,58.5,55.6,91,67,45,29.98,29.89,11,3,19,0.00
2013-7-5,84.8,74.9,63.7,60.5,57.8,52.9,79,57,34,29.93,29.83,15,4,18,0.00
2013-7-6,89.1,77.7,67.7,65.1,62.4,59.5,78,61,42,29.89,29.82,11,4,15,0.00
2013-7-7,83.2,74.5,66.8,73.9,67.3,63.4,95,79,63,29.87,29.80,11,2,13,0.51
2013-7-8,81.0,71.9,64.5,69.7,66.7,63.5,98,85,62,29.95,29.83,9,2,11,0.10
2013-7-9,75.3,70.2,63.7,71.3,67.9,62.5,98,92,85,29.95,29.70,11,2,15,0.69
2013-7-10,72.8,65.3,58.1,65.1,55.5,50.8,91,72,47,30.00,29.77,13,4,21,0.00
2013-7-11,81.6,68.4,53.9,59.8,54.7,47.4,94,65,33,30.10,29.99,7,1,10,0.00
2013-7-12,81.7,71.6,61.7,60.5,57.8,55.3,84,64,41,30.06,29.95,13,4,18,0.00
2013-7-13,81.7,73.1,65.6,63.1,59.7,57.3,75,63,49,30.08,29.95,10,3,14,0.00
2013-7-14,83.8,75.0,66.2,69.1,62.0,58.7,92,66,48,30.17,30.08,11,2,16,0.00
2013-7-15,86.2,75.9,62.7,72.4,65.7,60.8,94,73,47,30.23,30.15,14,2,15,0.00
2013-7-16,89.5,80.3,72.1,73.7,70.2,67.5,91,73,52,30.18,30.10,15,3,15,0.00
2013-7-17,88.8,80.0,70.2,70.5,68.3,65.8,90,69,50,30.19,30.05,16,3,16,0.00
2013-7-18,90.5,81.5,71.6,71.6,69.0,66.8,87,67,47,30.07,29.67,24,5,24,0.00
2013-7-19,82.7,76.7,65.9,70.8,63.5,53.8,85,65,42,29.77,29.58,22,5,22,0.00
2013-7-20,70.8,64.4,57.3,58.9,52.6,45.1,82,67,46,29.98,29.76,16,4,16,0.00
2013-7-21,69.0,61.8,55.1,59.2,54.1,46.6,91,76,67,29.99,29.85,13,3,13,0.00
2013-7-22,81.5,68.9,58.2,69.6,61.4,53.0,94,78,56,29.88,29.57,18,4,18,0.00
2013-7-23,66.5,59.4,51.8,53.2,48.8,44.1,91,69,48,30.01,29.73,21,5,21,0.00
2013-7-24,70.7,59.1,46.2,54.3,49.4,42.8,94,72,48,30.08,29.97,11,1,11,0.00
2013-7-25,78.7,65.5,54.6,62.5,56.9,50.2,91,75,50,29.98,29.84,16,2,16,0.03
2013-7-26,72.5,60.7,46.8,61.0,53.8,42.6,93,79,48,29.98,29.79,22,5,23,0.72
2013-7-27,54.2,48.4,44.0,49.1,45.0,41.1,94,88,71,29.97,29.85,15,4,15,0.15
2013-7-28,61.9,53.4,46.2,53.7,49.3,44.0,95,86,67,30.04,29.87,18,4,18,0.02
2013-7-29,74.0,60.5,43.6,56.8,50.0,41.5,96,71,45,30.13,30.03,10,1,10,4.80
2013-7-30,68.9,63.3,57.4,61.3,58.2,54.2,96,84,68,30.13,30.02,10,1,10,0.14
2013-7-31,74.3,65.4,55.3,62.2,57.3,49.3,96,77,43,30.04,29.89,19,3,19,8.16
2013-8-1,73.2,62.9,51.3,57.7,51.8,48.2,91,69,45,29.95,29.83,15,2,18,0.03
2013-8-2,73.7,63.4,54.0,56.9,52.4,46.4,93,70,40,29.99,29.79,18,3,18,0.01
2013-8-3,71.8,61.3,47.7,53.2,49.1,45.1,92,67,41,30.18,29.98,16,3,16,8.88
2013-8-4,70.6,59.2,43.8,53.9,48.6,42.7,98,71,43,30.23,30.05,10,1,10,8.88
2013-8-5,71.0,61.3,54.5,62.5,57.1,50.2,96,86,73,30.05,29.77,10,2,11,0.63
2013-8-6,74.7,66.6,59.2,61.8,59.7,54.7,97,80,52,29.80,29.61,18,3,18,0.94
2013-8-7,69.3,62.0,52.6,59.5,53.8,45.2,97,77,43,30.00,29.68,15,4,18,0.02
2013-8-8,72.9,60.1,45.9,57.9,51.4,44.4,96,76,47,30.04,29.95,14,2,14,0.02
2013-8-9,71.2,62.2,54.8,55.5,51.3,45.7,94,70,43,30.07,29.93,19,3,19,47.52
2013-8-10,71.0,62.0,53.9,55.3,52.6,48.5,91,73,46,30.14,30.06,10,1,10,47.52
2013-8-11,75.8,62.2,48.4,57.5,52.8,46.6,96,74,45,30.10,29.98,10,1,10,47.52
2013-8-12,73.9,62.6,51.2,60.2,54.4,46.1,96,76,41,30.07,29.92,25,4,25,0.04
2013-8-13,65.2,54.8,43.1,50.1,45.1,40.3,93,72,48,30.20,30.07,21,4,21,48.48
2013-8-14,68.3,55.3,39.8,52.9,45.1,38.1,97,72,44,30.23,30.10,13,2,13,48.48
2013-8-15,75.5,63.2,49.6,56.4,51.2,47.2,94,68,39,30.12,30.05,12,2,12,48.48
2013-8-16,77.8,64.3,48.5,60.1,54.2,47.1,96,73,43,30.16,30.10,12,1,12,48.48
2013-8-17,78.4,64.8,52.4,59.1,54.7,50.0,96,73,43,30.20,30.09,12,1,13,50.50
2013-8-18,79.9,68.0,55.9,58.8,55.1,52.3,92,66,40,30.14,30.00,15,2,15,48.48
2013-8-19,79.7,69.3,57.9,65.3,60.9,54.4,89,75,60,30.02,29.90,14,3,14,48.48
2013-8-20,86.0,74.0,63.7,69.9,65.5,60.7,91,76,58,29.94,29.83,18,3,18,46.46
2013-8-21,84.8,72.3,62.1,72.3,67.0,61.0,96,84,65,29.97,29.78,33,2,33,0.52
2013-8-22,76.5,66.6,54.8,61.0,53.8,46.8,98,67,36,30.13,29.96,14,3,14,0.01
2013-8-23,81.1,65.5,50.6,63.0,54.6,48.4,94,71,43,30.17,30.06,11,1,11,48.45
2013-8-24,80.7,72.6,60.7,68.4,61.1,53.3,86,68,51,30.15,29.96,20,5,20,53.55
2013-8-25,91.0,84.6,71.5,72.9,71.7,67.5,89,66,53,30.00,29.88,19,6,20,30.60
2013-8-26,88.2,75.6,68.1,75.4,70.9,66.6,96,86,58,29.96,29.85,16,2,18,2.22
2013-8-27,80.3,76.8,69.3,74.8,72.7,67.7,96,87,78,29.88,29.77,10,3,10,0.11
2013-8-28,81.3,73.0,63.0,70.4,65.9,62.3,98,80,55,29.99,29.86,6,1,7,0.01
2013-8-29,81.4,74.1,65.9,70.7,68.1,64.1,95,82,69,30.01,29.83,9,3,15,1.92
2013-8-30,75.1,69.9,65.7,69.4,66.8,61.0,96,90,65,29.87,29.78,19,7,19,0.00
2013-8-31,80.5,67.7,54.8,65.3,60.3,54.2,98,79,56,29.89,29.77,8,1,18,0.01
2013-9-1,74.4,67.0,57.7,65.6,58.7,53.8,91,75,58,29.88,29.68,20,6,20,0.00
2013-9-2,57.7,53.5,46.4,54.1,49.5,44.0,96,87,71,30.05,29.88,15,5,15,0.00
2013-9-3,73.2,57.1,41.7,55.7,48.4,40.3,97,75,48,30.09,29.95,13,2,13,0.01
2013-9-4,70.3,60.5,51.2,60.0,54.4,48.5,91,81,49,30.17,29.98,12,3,12,0.00
2013-9-5,74.2,62.2,44.2,55.8,50.3,42.9,96,67,44,30.29,30.16,10,1,10,0.01
2013-9-6,81.8,64.0,56.3,66.2,57.9,50.8,89,81,58,30.17,29.87,12,1,13,0.00
2013-9-7,83.6,73.5,57.9,70.1,64.9,52.0,87,75,55,30.05,29.83,22,5,22,0.00
2013-9-8,68.0,61.5,50.9,56.4,52.1,48.4,92,72,51,30.11,29.93,18,3,18,0.00
2013-9-9,82.4,67.9,57.6,73.8,64.2,53.4,97,88,74,29.94,29.61,16,2,16,0.08
2013-9-10,76.5,68.8,62.5,67.9,65.2,59.8,96,89,66,29.90,29.69,13,2,13,0.01
2013-9-11,75.2,67.1,60.9,62.2,58.6,52.1,94,76,49,29.96,29.89,15,3,15,0.00
2013-9-12,67.5,55.6,45.9,55.8,48.9,42.3,95,79,54,30.21,29.94,22,6,22,0.00
2013-9-13,60.9,50.4,42.0,47.7,43.1,39.3,96,78,51,30.27,30.12,12,2,12,0.00
2013-9-14,68.1,52.9,43.5,53.4,46.2,38.8,95,79,50,30.12,29.93,13,1,13,0.18
2013-9-15,56.2,51.5,39.8,54.1,48.7,37.6,96,90,77,30.32,29.94,22,4,22,0.16
2013-9-16,61.6,46.4,32.3,45.5,38.3,31.3,98,77,41,30.46,30.32,12,1,12,0.00
2013-9-17,65.8,55.9,42.5,52.3,44.3,39.5,91,67,48,30.35,30.02,15,4,15,0.00
2013-9-18,65.9,59.8,55.5,64.3,58.4,52.3,97,95,88,30.03,29.78,13,2,13,0.03
2013-9-19,76.0,67.9,63.2,69.7,65.4,62.0,97,92,80,29.80,29.61,27,3,27,0.69
2013-9-20,64.3,60.2,54.4,62.6,56.6,48.0,96,88,74,29.79,29.64,16,4,18,0.02
2013-9-21,60.2,50.1,45.1,56.6,42.2,38.7,93,75,57,29.95,29.70,13,4,18,0.00
2013-9-22,60.4,51.5,36.7,44.6,41.6,35.2,95,70,50,30.10,29.92,11,2,13,0.01
2013-9-23,65.9,53.2,43.0,51.8,46.1,40.6,92,78,54,30.10,29.99,15,3,15,0.00
2013-9-24,69.3,57.3,43.3,52.9,48.0,41.9,96,74,47,30.05,29.95,10,1,10,0.00
2013-9-25,69.8,55.6,39.7,54.0,48.0,38.9,98,78,48,30.03,29.93,12,1,12,0.01
2013-9-26,71.1,59.0,44.7,54.6,49.2,43.9,97,73,44,30.04,29.98,11,3,11,0.01
2013-9-27,77.2,67.1,56.0,58.9,53.1,48.4,80,62,47,30.05,29.90,23,5,23,0.00
2013-9-28,73.2,63.9,52.3,61.5,56.0,50.0,94,77,53,29.95,29.63,26,8,26,0.32
2013-9-29,67.8,50.7,42.2,50.8,45.1,40.6,95,82,39,29.98,29.78,8,2,14,0.01
2013-9-30,70.4,61.9,51.9,49.6,46.8,44.5,76,59,42,29.90,29.67,23,6,23,0.00
2013-10-1,73.2,63.4,52.8,55.0,43.8,33.3,79,52,25,29.93,29.60,20,4,20,0.00
2013-10-2,71.4,57.1,40.1,49.0,38.6,29.3,90,54,24,30.06,29.92,22,1,22,0.14
2013-10-3,59.8,53.7,49.4,53.6,50.8,47.5,96,90,78,29.99,29.85,21,3,21,0.87
2013-10-4,55.8,52.8,50.7,52.5,50.9,49.2,96,93,85,30.05,29.94,16,5,16,0.24
2013-10-5,56.6,53.5,51.9,55.5,52.5,50.6,97,96,95,30.01,29.70,23,7,23,1.40
2013-10-6,57.3,50.2,45.2,51.3,46.9,43.1,98,89,64,29.74,29.63,14,3,14,0.15
2013-10-7,59.6,47.8,41.2,46.4,41.3,37.2,97,81,45,30.04,29.74,14,2,14,0.00
2013-10-8,72.0,56.8,39.8,46.2,42.0,38.0,95,61,33,30.06,29.93,21,5,21,0.00
2013-10-9,71.1,59.9,53.0,50.2,46.6,44.0,75,62,44,30.08,29.98,16,3,16,0.00
2013-10-10,70.2,56.5,42.8,47.8,44.9,40.9,94,69,38,30.10,29.99,13,2,13,0.00
2013-10-11,71.3,59.8,48.9,55.0,50.9,44.7,92,74,53,30.01,29.77,23,4,23,0.00
2013-10-12,61.6,55.2,46.2,53.6,45.5,38.5,83,70,53,30.07,29.72,27,7,27,0.00
2013-10-13,55.4,47.5,34.4,42.0,36.0,28.6,91,67,37,30.43,30.07,12,4,12,0.00
2013-10-14,55.6,46.3,32.4,42.1,36.3,30.3,93,70,50,30.47,30.15,15,3,15,0.00
2013-10-15,52.0,48.2,44.8,50.9,46.2,40.2,96,93,79,30.15,29.67,20,4,20,0.98
2013-10-16,46.6,41.9,33.5,45.7,39.7,31.9,97,92,83,29.91,29.70,20,4,20,0.06
2013-10-17,53.5,41.3,30.7,41.9,35.9,30.0,98,83,53,29.91,29.77,11,1,11,0.02
2013-10-18,43.1,39.4,33.3,41.0,37.2,31.7,96,92,76,29.90,29.76,18,3,18,0.23
2013-10-19,43.3,36.9,31.9,37.9,33.6,30.4,95,88,69,29.86,29.67,12,2,12,0.04
2013-10-20,40.9,32.9,28.5,36.7,31.2,27.5,98,94,73,29.82,29.70,11,1,11,0.22
2013-10-21,32.6,31.0,29.5,31.7,26.8,21.3,97,85,67,29.87,29.75,21,6,21,0.04
2013-10-22,35.9,32.9,29.8,29.6,27.3,24.6,92,80,69,30.02,29.86,18,4,18,0.01
2013-10-23,35.2,30.5,26.1,28.3,24.1,20.9,89,77,61,30.03,29.96,15,3,15,0.00
2013-10-24,37.9,34.7,30.0,28.1,25.9,23.4,85,70,58,30.29,30.03,18,2,18,0.00
2013-10-25,49.4,43.2,29.6,38.5,30.9,24.5,86,62,55,30.30,29.70,24,6,24,0.00
2013-10-26,49.0,40.7,36.5,37.8,31.7,27.4,83,70,57,30.04,29.69,18,4,18,0.03
2013-10-27,49.4,32.7,29.0,31.7,27.9,25.9,88,83,49,30.07,29.82,11,1,13,0.00
2013-10-28,37.1,31.2,25.5,29.3,21.3,19.0,87,67,50,30.50,29.88,18,6,18,0.00
2013-10-29,34.9,32.0,25.2,33.5,28.0,20.5,95,85,74,30.50,30.19,10,2,10,0.03
2013-10-30,45.8,41.7,34.7,45.3,40.9,33.4,98,97,95,30.19,29.83,8,1,8,0.09
2013-10-31,51.6,49.7,43.2,51.1,49.1,42.4,99,98,97,29.85,29.26,8,1,8,0.12
2013-11-1,43.3,39.3,36.3,42.5,37.9,34.7,97,95,92,29.79,29.25,11,2,11,0.07
2013-11-2,40.0,34.5,26.8,38.1,31.2,24.8,95,88,71,30.16,29.59,9,1,10,0.01
2013-11-3,43.3,36.3,25.6,34.8,30.8,24.1,97,81,63,30.27,30.10,19,4,21,0.00
2013-11-4,42.9,41.0,34.3,41.6,37.4,32.8,95,87,76,30.17,29.93,24,6,24,0.21
2013-11-5,42.3,33.9,28.1,36.0,31.4,27.1,98,91,67,30.28,29.96,14,3,15,0.09
2013-11-6,32.2,29.5,22.8,31.4,27.1,20.4,97,91,83,30.16,29.91,14,3,19,0.06
2013-11-7,33.2,26.6,20.9,25.2,21.8,18.4,92,82,66,30.23,30.15,14,2,14,0.01
2013-11-8,35.4,30.0,21.6,32.5,26.5,19.6,95,87,73,30.25,29.66,15,3,22,0.04
2013-11-9,37.7,35.7,33.3,36.7,32.4,28.4,96,88,78,30.08,29.62,20,7,27,0.05
2013-11-10,39.5,34.9,32.8,29.8,27.8,24.3,87,75,55,30.28,30.04,14,4,14,0.00
2013-11-11,33.2,23.3,19.0,29.2,14.5,8.9,87,69,53,30.56,30.06,23,10,26,0.00
2013-11-12,25.3,16.8,10.4,11.4,7.5,5.5,85,68,43,30.76,30.50,13,4,16,0.00
2013-11-13,45.2,31.7,15.5,29.7,22.1,8.7,82,68,50,30.58,29.87,24,6,24,0.00
2013-11-14,38.6,33.9,30.0,30.4,28.3,26.3,94,80,71,29.90,29.79,8,2,9,0.00
2013-11-15,49.9,37.9,27.9,38.0,32.8,26.9,97,83,62,29.90,29.75,9,2,14,0.00
2013-11-16,51.9,42.7,37.9,50.4,39.6,32.7,98,89,75,29.77,29.29,15,5,16,0.61
2013-11-17,48.9,39.0,29.9,45.6,36.3,25.6,96,90,81,29.62,29.24,24,5,27,0.05
2013-11-18,30.3,26.0,21.9,27.5,19.6,16.6,89,76,69,30.30,29.60,26,5,27,0.00
2013-11-19,35.5,28.0,15.5,22.8,19.0,13.0,92,70,52,30.35,30.10,16,4,19,0.00
2013-11-20,37.9,33.6,30.6,30.5,26.6,20.7,96,77,56,30.12,30.05,19,5,20,0.00
2013-11-21,32.8,29.5,22.6,32.0,28.4,20.9,97,95,92,30.44,30.08,16,4,18,0.08
2013-11-22,28.5,21.4,9.8,21.3,14.6,2.4,93,76,48,30.55,30.41,16,4,19,0.01
2013-11-23,11.8,7.5,2.1,3.7,0.4,-3.3,81,73,53,30.77,30.54,19,4,24,0.00
2013-11-24,20.9,10.9,-2.2,12.1,2.4,-5.7,87,69,52,30.75,30.01,24,5,24,0.00
2013-11-25,33.9,28.7,20.6,26.2,21.3,12.1,81,74,62,30.02,29.90,21,6,22,0.00
2013-11-26,27.8,14.1,6.2,18.3,6.7,1.7,88,72,54,30.33,30.00,16,4,21,0.00
2013-11-27,21.1,15.1,6.0,15.5,10.7,3.0,90,83,64,30.38,30.18,7,1,8,0.00
2013-11-28,21.6,17.3,13.8,16.8,13.8,11.0,92,86,75,30.55,30.17,9,1,10,0.00
2013-11-29,23.9,15.6,-0.3,18.4,11.2,-3.2,91,83,74,30.64,30.27,18,2,21,0.00
2013-11-30,34.9,28.7,23.6,26.8,23.1,18.0,89,79,70,30.29,30.05,10,2,11,0.03
2013-12-1,32.0,28.5,19.0,27.5,24.5,16.6,94,85,73,30.20,29.98,7,1,8,0.01
2013-12-2,30.5,26.2,16.8,28.0,24.0,14.4,96,91,86,30.00,29.78,16,4,18,0.01
2013-12-3,29.4,27.1,23.1,28.7,25.8,21.4,97,95,92,29.91,29.75,20,8,22,0.00
2013-12-4,33.2,28.0,23.0,32.4,26.8,21.3,98,95,92,29.90,29.38,18,5,20,0.03
2013-12-5,26.8,7.7,-3.6,25.3,4.5,-6.7,94,86,81,30.31,29.48,23,8,25,0.00
2013-12-6,5.0,-3.6,-8.8,0.5,-7.1,-12.1,86,84,80,30.65,30.28,11,4,12,0.00
2013-12-7,-1.5,-8.7,-16.4,-6.7,-12.6,-20.1,86,83,76,30.76,30.64,10,2,12,0.00
2013-12-8,9.5,0.6,-16.2,7.2,-2.5,-19.9,90,87,81,30.68,30.07,10,2,11,0.00
2013-12-9,9.4,-0.3,-11.5,7.1,-3.8,-15.0,90,85,78,30.13,29.95,21,4,22,0.00
2013-12-10,4.9,-1.8,-11.5,0.3,-5.7,-15.0,87,83,77,30.17,29.91,19,3,19,0.00
2013-12-12,9.1,7.0,-1.4,6.0,2.9,-5.0,86,83,79,30.37,30.24,7,3,11,0.00
2013-12-13,9.0,5.4,-0.2,6.0,1.3,-4.0,88,83,77,30.42,30.26,8,5,12,0.00
2013-12-14,14.9,9.0,2.6,12.0,5.4,-2.0,90,85,81,30.42,30.00,13,4,15,0.00
2013-12-15,6.5,-4.9,-21.1,3.0,-9.2,-25.0,85,82,76,30.24,30.01,9,2,16,0.00
2013-12-16,9.2,-2.2,-21.7,7.0,-5.7,-26.0,91,85,74,30.25,30.00,10,2,15,0.00
2013-12-17,24.2,16.3,7.2,21.0,13.5,3.0,94,88,80,30.08,29.89,12,3,14,0.00
2013-12-18,24.2,9.7,-4.8,15.0,4.8,-9.0,91,81,65,30.10,29.74,9,2,18,0.00
2013-12-19,17.3,11.9,1.9,14.0,8.4,-1.0,94,85,81,30.16,29.84,16,6,18,0.00
2013-12-20,17.7,12.7,3.7,14.0,9.9,1.0,92,88,83,30.13,29.91,7,2,10,0.00
2013-12-21,20.0,17.0,12.5,17.0,14.4,10.0,93,89,85,30.03,29.91,9,2,13,0.00
2013-12-22,22.8,18.9,15.5,20.0,16.5,13.0,93,90,84,30.17,29.95,11,5,13,0.00
2013-12-23,15.2,9.3,-9.9,13.0,6.4,-13.0,92,88,81,30.49,30.17,8,2,11,0.00
2013-12-24,12.3,-0.4,-18.2,7.0,-4.4,-22.0,94,83,77,30.55,30.26,11,3,18,0.00
2013-12-25,14.1,10.0,5.8,11.0,7.3,3.0,90,88,83,30.25,30.09,8,3,12,0.00
2013-12-26,15.2,9.7,1.2,13.0,6.6,-2.0,90,87,83,30.26,30.12,5,1,8,0.00
2013-12-27,30.7,22.9,15.3,27.0,20.9,13.0,95,91,84,30.26,29.91,10,3,15,0.00
2013-12-28,36.1,26.8,18.9,34.0,25.7,18.0,97,95,90,30.01,29.73,21,3,32,0.15
2013-12-29,20.4,1.6,-21.1,19.0,-2.6,-26.0,92,82,75,30.31,29.88,21,7,26,0.00
2013-12-30,-3.0,-15.1,-29.6,-11.0,-20.9,-34.0,84,76,61,30.41,30.31,4,1,11,0.00
2013-12-31,-4.2,-10.9,-24.7,-11.0,-15.7,-30.0,85,79,68,30.54,30.29,8,2,13,0.00
2014-1-1,1.6,-6.3,-23.4,-4.0,-10.8,-28.0,84,81,74,30.64,30.52,8,1,10,0.00
2014-1-2,4.7,-8.0,-23.2,-2.0,-12.6,-28.0,86,80,69,30.55,30.49,9,1,9,0.00